User: anonymous   Login
Location: Newark
(48.6461°N, 4.3644°W)
Time: 00:30:22
(UTC+00:00)
Language:

STARLINK-1043 - Orbit

View from above orbital plane
View from above orbital plane
View from above satellite
View from above satellite

Ground track
Ground track

The orbit data is extracted from the following two-line orbital elements,

1 44748U 19074AM  20047.58334491 +.00041937 +00000-0 +28811-2 0  9994
2 44748 053.0142 081.5521 0000961 051.3176 286.4178 15.05570456014824
Epoch (UTC): 16 February 2020 14:00:01
Eccentricity: 0.0000961
inclination: 53.0142°
perigee height: 549 km
apogee height: 550 km
right ascension of ascending node: 81.5521°
argument of perigee: 51.3176°
revolutions per day: 15.05570456
mean anomaly at epoch: 286.4178°
orbit number at epoch: 1482

The dashed part of the orbit path shows where the satellite is in the earth's shadow,  

DLR